TimeCST,TemperatureF,Dew PointF,Humidity,Sea Level PressureIn,VisibilityMPH,Wind Direction,Wind SpeedMPH,Gust SpeedMPH,PrecipitationIn,Events,Conditions,WindDirDegrees,DateUTC
12:15 AM,39.2,35.2,86,29.96,10.0,SE,3.5,-,N/A,,Clear,130,2012-11-09 06:15:00
12:55 AM,38.3,34.5,86,29.96,10.0,ESE,3.5,-,N/A,,Clear,110,2012-11-09 06:55:00
1:15 AM,37.8,34.0,86,29.95,10.0,ESE,3.5,-,N/A,,Clear,110,2012-11-09 07:15:00
1:35 AM,37.0,33.8,88,29.95,10.0,East,5.8,-,N/A,,Clear,100,2012-11-09 07:35:00
1:55 AM,36.9,33.3,87,29.95,10.0,East,6.9,-,N/A,,Clear,100,2012-11-09 07:55:00
2:15 AM,37.6,33.6,86,29.95,10.0,East,5.8,-,N/A,,Clear,100,2012-11-09 08:15:00
2:35 AM,35.1,32.0,89,29.95,10.0,ESE,4.6,-,N/A,,Clear,110,2012-11-09 08:35:00
3:15 AM,35.8,32.9,89,29.95,10.0,East,3.5,-,N/A,,Mostly Cloudy,90,2012-11-09 09:15:00
3:35 AM,37.4,34.7,90,29.94,10.0,East,3.5,-,N/A,,Overcast,90,2012-11-09 09:35:00
3:55 AM,38.7,35.4,88,29.94,10.0,East,5.8,-,N/A,,Overcast,100,2012-11-09 09:55:00
4:15 AM,38.8,35.6,88,29.94,10.0,East,4.6,-,N/A,,Overcast,90,2012-11-09 10:15:00
4:35 AM,39.2,35.8,88,29.93,10.0,East,6.9,-,N/A,,Overcast,100,2012-11-09 10:35:00
4:55 AM,39.2,35.8,88,29.93,10.0,East,6.9,-,N/A,,Overcast,100,2012-11-09 10:55:00
5:15 AM,37.6,34.3,88,29.94,7.0,East,5.8,-,N/A,,Scattered Clouds,100,2012-11-09 11:15:00
5:35 AM,36.9,34.2,90,29.94,7.0,East,5.8,-,N/A,,Clear,100,2012-11-09 11:35:00
5:55 AM,35.6,33.1,91,29.94,7.0,East,6.9,-,N/A,,Clear,90,2012-11-09 11:55:00
6:15 AM,36.0,33.6,91,29.94,7.0,East,5.8,-,N/A,,Clear,90,2012-11-09 12:15:00
6:35 AM,35.6,32.9,90,29.94,7.0,East,5.8,-,N/A,,Clear,100,2012-11-09 12:35:00
6:55 AM,35.6,32.9,90,29.94,7.0,East,5.8,-,N/A,,Clear,90,2012-11-09 12:55:00
7:15 AM,34.7,32.2,91,29.94,5.0,East,4.6,-,N/A,,Clear,100,2012-11-09 13:15:00
7:35 AM,35.6,33.1,91,29.95,4.0,East,5.8,-,N/A,,Scattered Clouds,80,2012-11-09 13:35:00
7:55 AM,36.3,33.8,91,29.95,5.0,East,6.9,-,N/A,,Mostly Cloudy,80,2012-11-09 13:55:00
8:15 AM,37.9,35.1,89,29.96,5.0,ENE,6.9,-,N/A,,Overcast,70,2012-11-09 14:15:00
8:35 AM,38.5,35.2,88,29.95,5.0,East,6.9,-,N/A,,Overcast,80,2012-11-09 14:35:00
9:15 AM,41.4,36.9,84,29.96,7.0,ENE,6.9,-,N/A,,Mostly Cloudy,70,2012-11-09 15:15:00
9:35 AM,42.1,36.9,82,29.95,7.0,East,8.1,-,N/A,,Mostly Cloudy,80,2012-11-09 15:35:00
9:55 AM,44.2,38.1,79,29.95,10.0,East,6.9,-,N/A,,Scattered Clouds,80,2012-11-09 15:55:00
10:15 AM,48.2,39.4,72,29.95,10.0,East,5.8,-,N/A,,Scattered Clouds,90,2012-11-09 16:15:00
10:35 AM,48.6,39.6,71,29.95,10.0,ENE,8.1,-,N/A,,Scattered Clouds,70,2012-11-09 16:35:00
11:15 AM,51.1,40.1,66,29.94,10.0,East,9.2,-,N/A,,Scattered Clouds,100,2012-11-09 17:15:00
11:35 AM,51.8,40.5,65,29.93,10.0,East,8.1,-,N/A,,Clear,90,2012-11-09 17:35:00
11:55 AM,53.1,41.0,64,29.92,10.0,East,9.2,-,N/A,,Clear,90,2012-11-09 17:55:00
12:15 PM,54.1,41.2,62,29.91,10.0,East,11.5,-,N/A,,Clear,100,2012-11-09 18:15:00
12:35 PM,52.9,41.0,64,29.89,10.0,East,11.5,-,N/A,,Clear,100,2012-11-09 18:35:00
12:55 PM,52.9,40.6,63,29.89,10.0,East,12.7,-,N/A,,Clear,90,2012-11-09 18:55:00
1:15 PM,52.3,41.0,65,29.87,10.0,East,15.0,-,N/A,,Clear,80,2012-11-09 19:15:00
1:35 PM,52.3,41.4,66,29.87,10.0,East,12.7,-,N/A,,Clear,90,2012-11-09 19:35:00
1:55 PM,52.7,41.9,67,29.86,10.0,East,17.3,-,N/A,,Clear,90,2012-11-09 19:55:00
2:15 PM,53.6,42.1,65,29.86,10.0,East,11.5,17.3,N/A,,Clear,90,2012-11-09 20:15:00
2:35 PM,54.9,41.9,62,29.85,10.0,East,15.0,20.7,N/A,,Clear,90,2012-11-09 20:35:00
2:55 PM,53.1,41.9,66,29.85,10.0,East,15.0,-,N/A,,Clear,100,2012-11-09 20:55:00
3:15 PM,53.2,42.1,66,29.85,10.0,East,17.3,-,N/A,,Clear,100,2012-11-09 21:15:00
3:55 PM,52.9,42.8,69,29.85,10.0,East,13.8,19.6,N/A,,Clear,100,2012-11-09 21:55:00
4:15 PM,52.7,42.8,69,29.85,10.0,East,13.8,18.4,N/A,,Clear,100,2012-11-09 22:15:00
4:35 PM,52.2,42.8,70,29.86,10.0,East,11.5,-,N/A,,Clear,100,2012-11-09 22:35:00
4:55 PM,51.8,42.8,71,29.86,10.0,East,11.5,-,N/A,,Clear,100,2012-11-09 22:55:00
5:15 PM,51.3,42.8,73,29.86,10.0,East,12.7,-,N/A,,Clear,100,2012-11-09 23:15:00
5:35 PM,51.1,42.8,73,29.86,10.0,East,11.5,-,N/A,,Clear,100,2012-11-09 23:35:00
5:55 PM,50.5,42.6,74,29.87,10.0,East,10.4,-,N/A,,Clear,100,2012-11-09 23:55:00
6:15 PM,50.5,42.8,75,29.87,10.0,East,11.5,-,N/A,,Clear,90,2012-11-10 00:15:00
6:35 PM,50.0,42.8,76,29.86,10.0,East,11.5,-,N/A,,Scattered Clouds,90,2012-11-10 00:35:00
6:55 PM,50.0,42.8,76,29.86,10.0,East,10.4,-,N/A,,Mostly Cloudy,90,2012-11-10 00:55:00
7:15 PM,50.0,42.8,76,29.86,10.0,East,10.4,-,N/A,,Mostly Cloudy,100,2012-11-10 01:15:00
7:35 PM,50.2,42.8,76,29.86,10.0,East,13.8,-,N/A,,Mostly Cloudy,100,2012-11-10 01:35:00
7:55 PM,50.4,43.0,76,29.86,10.0,East,12.7,-,N/A,,Overcast,100,2012-11-10 01:55:00
8:15 PM,50.7,43.0,75,29.86,10.0,East,16.1,-,N/A,,Overcast,100,2012-11-10 02:15:00
8:35 PM,50.9,43.0,74,29.86,10.0,East,12.7,-,N/A,,Overcast,100,2012-11-10 02:35:00
8:55 PM,51.1,43.3,75,29.85,10.0,East,15.0,-,N/A,,Overcast,100,2012-11-10 02:55:00
9:15 PM,51.1,43.7,76,29.85,10.0,East,15.0,-,N/A,,Overcast,100,2012-11-10 03:15:00
9:35 PM,51.4,43.7,75,29.85,10.0,East,13.8,20.7,N/A,,Overcast,90,2012-11-10 03:35:00
9:55 PM,51.1,43.7,76,29.85,10.0,East,13.8,-,N/A,,Overcast,100,2012-11-10 03:55:00
10:15 PM,51.1,43.7,76,29.85,10.0,East,15.0,19.6,N/A,,Overcast,90,2012-11-10 04:15:00
10:35 PM,51.1,43.9,76,29.85,10.0,East,16.1,19.6,N/A,,Overcast,100,2012-11-10 04:35:00
10:55 PM,50.9,44.1,77,29.84,10.0,East,15.0,20.7,N/A,,Overcast,100,2012-11-10 04:55:00
11:15 PM,50.5,44.1,78,29.84,10.0,East,16.1,-,N/A,,Overcast,100,2012-11-10 05:15:00
11:35 PM,50.9,44.2,78,29.82,10.0,East,13.8,-,N/A,,Overcast,100,2012-11-10 05:35:00
11:55 PM,50.9,44.6,79,29.82,10.0,East,15.0,-,N/A,,Overcast,100,2012-11-10 05:55:00